Location: Bannatyne
(13.0833°N, 59.5333°W)
Time: 06:15:50
(UTC+00:00)

Vanguard 3 - Pass Details

Date: 01 February 2020
Orbit: 508 x 3263 km, 33.3° (Epoch: 17 February)

Event Time Altitude Azimuth Distance (km) Brightness Sun altitude
Rises 20:01:21 0° 274° (W) 6,029 12.5 25.8°
Reaches altitude 10° 20:05:18 10° 281° (W) 5,338 12.3 24.9°
Maximum altitude 20:21:22 43° 348° (NNW) 4,039 10.8 21.4°
Drops below altitude 10° 20:39:38 10° 55° (NE) 5,971 11.0 17.3°
Sets 20:44:27 0° 62° (ENE) 6,766 11.2 16.2°
